Location: Hylvaty SDH
(49.9612°N, 16.4057°E)
Time: 19:28:27
(UTC+01:00)

Vanguard 1 Rocket - Pass Details

Date: 07 October 2020
Orbit: 656 x 4221 km, 34.3° (Epoch: 30 October)

Event Time Altitude Azimuth Distance (km) Brightness Sun altitude
Rises 22:02:52 0° 270° (W) 5,892 12.2 -34.8°
Reaches altitude 10° 22:06:53 10° 260° (W) 5,345 11.7 -35.3°
Maximum altitude 22:20:37 30° 208° (SSW) 5,084 10.9 -36.9°
Enters shadow 22:26:51 27° 186° (S) 5,659 11.0 -37.6°
Drops below altitude 10° 22:39:48 10° 159° (SSE) 7,398 - -39.1°
Sets 22:47:01 0° 150° (SSE) 8,433 - -39.8°
